[Iaude] MPEC P64: 2024 PU [a=1.24,e=0.32,i=4.4,H=25.9]

mpec at cfa.harvard.edu mpec at cfa.harvard.edu
Mon Aug 5 07:37:50 EDT 2024


M.P.E.C. 2024-P64                                Issued 2024 August 5, 11:36 UT

     The Minor Planet Electronic Circulars contain information on unusual
         minor planets, routine data on comets and natural satellites,
         and occasional editorial announcements.  They are published
    on behalf of Division F of the International Astronomical Union by the
          Minor Planet Center, Smithsonian Astrophysical Observatory,
                          Cambridge, MA 02138, U.S.A.
			  
             Prepared using the Tamkin Foundation Computer Network

                              MPC at CFA.HARVARD.EDU
            URL https://www.minorplanetcenter.net/    ISSN 1523-6714

                                    2024 PU                                     


Observations:
     K24P00U* C2024 08 01.39327019 59 21.031-38 21 57.68         21.22wXEP064F51
     K24P00U  C2024 08 01.40303419 59 24.120-38 21 37.17         20.81wXEP064F51
     K24P00U  C2024 08 01.41280119 59 27.228-38 21 16.33         20.78wXEP064F51
     K24P00U  C2024 08 01.42258219 59 30.342-38 20 55.42         21.16wXEP064F51
     K24P00U KC2024 08 01.58753820 00 30.924-38 12 35.68         21.1 GVEP064474
     K24P00U KC2024 08 01.59129420 00 32.124-38 12 26.68         20.5 GVEP064474
     K24P00U KC2024 08 01.59881120 00 34.586-38 12 09.65         20.4 GVEP064474
     K24P00U KC2024 08 02.54492420 06 07.219-37 41 45.28         20.9 GVEP064474
     K24P00U KC2024 08 02.54984120 06 08.458-37 41 35.74         20.5 GVEP064474
     K24P00U KC2024 08 02.55475920 06 09.914-37 41 27.31         21.4 GVEP064474
     K24P00U 3C2024 08 05.40085520 18 11.991-36 28 54.32         21.52GVEP064T14
     K24P00U 3C2024 08 05.40183220 18 12.136-36 28 52.95         21.37GVEP064T14
     K24P00U 3C2024 08 05.40281420 18 12.276-36 28 51.72         21.27GVEP064T14

Observer details:
474 Mount John Observatory, Lake Tekapo.  Observers A. C. Gilmore, P. M.
    Kilmartin.  Measurer P. M. Kilmartin.  0.6-m f/6.3 Reflector + CCD.
F51 Pan-STARRS 1, Haleakala.  Observers J. Herman, T. Lowe, P. Minguez, A.
    Schultz, I. Smith.  Measurers K. Chambers, T. de Boer, J. Fairlamb, H.
    Gao, M. Huber, C.-C. Lin, E. Magnier, Y. Ramanjooloo, R. Wainscoat, R.
    Weryk.  1.8-m Ritchey-Chretien + CCD.
T14 Canada-France-Hawaii Telescope, Maunakea.  Observers R. Wainscoat, A.
    Acohido, V. Khatu.  Measurers R. Weryk, R. Wainscoat.  3.6-m f/4.1
    reflector + CCD.

Orbital elements:
2024 PU                                                  Earth MOID = 0.0029 AU
Epoch 2024 Oct. 17.0 TT = JDT 2460600.5                 MPC                     
M 101.89026              (2000.0)            P               Q                  
n   0.71120634     Peri.  110.05524     -0.68534113     +0.72503669             
a   1.2430034      Node   116.49059     -0.69331629     -0.62105658             
e   0.3205507      Incl.    4.35988     -0.22275559     -0.29767519             
P   1.39           H   25.99          G   0.15           U   7                  
Residuals in seconds of arc
240801 F51  0.4+  0.0     240801 474  0.6+  0.2+    240805 T14  0.0   0.0
240801 F51  0.0   0.0     240801 474  0.0   0.1-    240805 T14  0.0   0.0
240801 F51  0.1-  0.0     240802 474  0.1-  0.4+    240805 T14  0.0   0.1-
240801 F51  0.1-  0.2-    240802 474  1.0-  0.4+
240801 474  1.2+  0.2-    240802 474  0.6+  0.8-

Ephemeris:
2024 PU                  a,e,i = 1.24, 0.32, 4                   q = 0.8446
Date    TT    R. A. (2000) Decl.     Delta      r    Elong.  Phase     V
2024 07 06    09 28 56.0 +27 14 01   0.09380 0.9401    33.7   143.2    28.0
...
2024 07 21    12 11 38.0 -06 47 07   0.01630 1.0098    67.1   112.1    21.4
...
2024 07 29    19 25 14.6 -40 51 06   0.03879 1.0502   153.5    25.6    20.2
...
2024 08 04    20 12 58.5 -37 01 13   0.07146 1.0812   158.0    20.6    21.4
2024 08 05    20 16 48.6 -36 36 36   0.07711 1.0864   158.1    20.4    21.6
2024 08 06    20 20 07.2 -36 14 15   0.08281 1.0916   158.1    20.3    21.8
...
2024 08 12    20 33 28.0 -34 30 24   0.1180  1.1229   157.0    20.6    22.6
...
2024 08 20    20 43 42.1 -32 49 39   0.1679  1.1645   153.6    22.8    23.5
...
2024 09 04    20 57 40.3 -30 09 58   0.2723  1.2407   144.7    28.0    24.9

A. U. Tomatic                (C) Copyright 2024 MPC           M.P.E.C. 2024-P64





More information about the Iaude mailing list